• In Hungary
  • List of Countries
  • For 7 days
  • Water Temperature
  • Satellite Maps
  • Weather Map
  • News
  • Weather Widgets
  • user-avatar
    Login

    Hourly Weather Zrebce

    Today, 21 September, Friday

    Time Temperature Precipitation Wind Pressure Humidity
    00:00 +19°C° 0 mm 1 mps 746 mmHg 68%
    01:00 +18°C° 0 mm 1 mps 746 mmHg 70%
    02:00 +18°C° 0 mm 1 mps 746 mmHg 72%
    03:00 +16°C° 0 mm 1 mps 745 mmHg 73%
    04:00 +16°C° 0 mm 1 mps 745 mmHg 75%
    05:00 +16°C° 0 mm 1 mps 745 mmHg 76%
    06:00 +16°C° 0 mm 2 mps 745 mmHg 75%
    07:00 +17°C° 0 mm 2 mps 745 mmHg 74%
    08:00 +18°C° 0 mm 2 mps 745 mmHg 72%
    09:00 +20°C° 0 mm 2 mps 745 mmHg 66%
    10:00 +22°C° 0 mm 3 mps 745 mmHg 60%
    11:00 +25°C° 0 mm 3 mps 745 mmHg 54%
    12:00 +26°C° 0 mm 3 mps 744 mmHg 51%
    13:00 +27°C° 0 mm 4 mps 744 mmHg 48%
    14:00 +27°C° 0 mm 4 mps 743 mmHg 45%
    15:00 +27°C° 0 mm 4 mps 743 mmHg 48%
    16:00 +27°C° 0 mm 3 mps 742 mmHg 50%
    17:00 +26°C° 0 mm 3 mps 742 mmHg 53%
    18:00 +25°C° 0 mm 3 mps 742 mmHg 57%
    19:00 +22°C° 0 mm 4 mps 742 mmHg 61%
    20:00 +20°C° 0 mm 4 mps 742 mmHg 66%
    21:00 +20°C° 0 mm 4 mps 742 mmHg 65%
    22:00 +20°C° 0 mm 4 mps 741 mmHg 65%
    23:00 +19°C° 0 mm 4 mps 741 mmHg 65%

    Tomorrow, 22 September, Saturday

    Time Temperature Precipitation Wind Pressure Humidity
    00:00 +19°C° 0 mm 4 mps 741 mmHg 65%
    01:00 +18°C° 0 mm 4 mps 741 mmHg 66%
    02:00 +18°C° 0 mm 4 mps 741 mmHg 66%
    03:00 +18°C° 0 mm 4 mps 741 mmHg 65%
    04:00 +17°C° 0 mm 5 mps 741 mmHg 64%
    05:00 +17°C° 0 mm 5 mps 741 mmHg 62%
    06:00 +16°C° 0.2 mm 5 mps 742 mmHg 68%
    07:00 +15°C° 0.2 mm 5 mps 743 mmHg 73%
    08:00 +13°C° 0.2 mm 6 mps 744 mmHg 78%
    09:00 +13°C° 0.6 mm 5 mps 744 mmHg 79%
    10:00 +12°C° 0.6 mm 4 mps 745 mmHg 81%
    11:00 +12°C° 0.6 mm 3 mps 746 mmHg 82%
    12:00 +12°C° 0.5 mm 3 mps 746 mmHg 82%
    13:00 +12°C° 0.5 mm 3 mps 746 mmHg 82%
    14:00 +12°C° 0.5 mm 3 mps 746 mmHg 82%
    15:00 +12°C° 0.1 mm 3 mps 746 mmHg 80%
    16:00 +12°C° 0.1 mm 3 mps 745 mmHg 78%
    17:00 +13°C° 0.1 mm 3 mps 745 mmHg 76%
    18:00 +12°C° 0.1 mm 3 mps 745 mmHg 79%
    19:00 +11°C° 0.1 mm 3 mps 745 mmHg 82%
    20:00 +10°C° 0.1 mm 3 mps 745 mmHg 85%
    21:00 +10°C° 0 mm 3 mps 745 mmHg 85%
    22:00 +10°C° 0 mm 3 mps 745 mmHg 84%
    23:00 +9°C° 0 mm 3 mps 745 mmHg 84%

    Day after tomorrow, 23 September, Sunday

    Time Temperature Precipitation Wind Pressure Humidity
    00:00 +9°C° 0 mm 3 mps 745 mmHg 83%
    01:00 +9°C° 0 mm 3 mps 745 mmHg 83%
    02:00 +9°C° 0 mm 3 mps 745 mmHg 83%
    03:00 +8°C° 0 mm 4 mps 746 mmHg 83%
    04:00 +7°C° 0 mm 4 mps 746 mmHg 83%
    05:00 +7°C° 0 mm 4 mps 746 mmHg 83%
    06:00 +8°C° 0 mm 4 mps 746 mmHg 80%
    07:00 +8°C° 0 mm 4 mps 746 mmHg 77%
    08:00 +9°C° 0 mm 5 mps 746 mmHg 74%
    09:00 +12°C° 0 mm 5 mps 747 mmHg 67%
    10:00 +13°C° 0 mm 6 mps 747 mmHg 60%
    11:00 +15°C° 0 mm 6 mps 747 mmHg 52%
    12:00 +15°C° 0 mm 6 mps 747 mmHg 49%
    13:00 +16°C° 0 mm 6 mps 746 mmHg 46%
    14:00 +17°C° 0 mm 6 mps 746 mmHg 43%
    15:00 +17°C° 0 mm 5 mps 746 mmHg 45%
    16:00 +17°C° 0 mm 4 mps 745 mmHg 47%
    17:00 +17°C° 0 mm 3 mps 745 mmHg 49%
    18:00 +16°C° 0 mm 3 mps 745 mmHg 54%
    19:00 +14°C° 0 mm 2 mps 745 mmHg 59%
    20:00 +13°C° 0 mm 2 mps 745 mmHg 64%
    21:00 +12°C° 0 mm 3 mps 744 mmHg 65%
    22:00 +12°C° 0 mm 3 mps 743 mmHg 67%
    23:00 +12°C° 0 mm 3 mps 743 mmHg 69%

    24 September, Monday

    Time Temperature Precipitation Wind Pressure Humidity
    00:00 +12°C° 0.1 mm 4 mps 742 mmHg 70%
    01:00 +12°C° 0.1 mm 4 mps 740 mmHg 71%
    02:00 +12°C° 0.1 mm 5 mps 739 mmHg 72%
    03:00 +12°C° 1.4 mm 5 mps 738 mmHg 73%
    04:00 +13°C° 1.4 mm 6 mps 736 mmHg 74%
    05:00 +13°C° 1.4 mm 6 mps 735 mmHg 75%
    06:00 +12°C° 0.5 mm 7 mps 734 mmHg 73%
    07:00 +13°C° 0.5 mm 8 mps 733 mmHg 72%
    08:00 +15°C° 0.5 mm 9 mps 731 mmHg 70%
    09:00 +15°C° 0.4 mm 9 mps 731 mmHg 72%
    10:00 +15°C° 0.4 mm 9 mps 730 mmHg 73%
    11:00 +16°C° 0.4 mm 10 mps 730 mmHg 75%
    12:00 +14°C° 0.5 mm 10 mps 729 mmHg 73%
    13:00 +14°C° 0.5 mm 11 mps 729 mmHg 71%
    14:00 +14°C° 0.5 mm 12 mps 728 mmHg 70%
    15:00 +13°C° 0.4 mm 13 mps 729 mmHg 71%
    16:00 +10°C° 0.4 mm 14 mps 730 mmHg 73%
    17:00 +9°C° 0.4 mm 15 mps 731 mmHg 75%
    18:00 +9°C° 0.2 mm 14 mps 733 mmHg 75%
    19:00 +8°C° 0.2 mm 13 mps 734 mmHg 75%
    20:00 +8°C° 0.2 mm 12 mps 735 mmHg 75%
    21:00 +8°C° 0.2 mm 12 mps 737 mmHg 75%
    22:00 +8°C° 0.2 mm 12 mps 738 mmHg 75%
    23:00 +7°C° 0.2 mm 11 mps 739 mmHg 76%

    25 September, Tuesday

    Time Temperature Precipitation Wind Pressure Humidity
    00:00 +7°C° 0.1 mm 11 mps 740 mmHg 76%
    01:00 +7°C° 0.1 mm 11 mps 741 mmHg 75%
    02:00 +6°C° 0.1 mm 11 mps 743 mmHg 75%
    03:00 +6°C° 0.1 mm 10 mps 743 mmHg 75%
    04:00 +5°C° 0.1 mm 10 mps 744 mmHg 74%
    05:00 +5°C° 0.1 mm 10 mps 745 mmHg 74%
    06:00 +5°C° 0.1 mm 10 mps 745 mmHg 73%
    07:00 +5°C° 0.1 mm 10 mps 746 mmHg 72%
    08:00 +5°C° 0.1 mm 10 mps 746 mmHg 71%
    09:00 +6°C° 0.1 mm 10 mps 747 mmHg 69%
    10:00 +6°C° 0.1 mm 10 mps 748 mmHg 67%
    11:00 +7°C° 0.1 mm 10 mps 748 mmHg 64%
    12:00 +8°C° 0.2 mm 9 mps 749 mmHg 59%
    13:00 +10°C° 0.2 mm 9 mps 749 mmHg 55%
    14:00 +10°C° 0.2 mm 9 mps 749 mmHg 50%
    15:00 +10°C° 0.1 mm 8 mps 749 mmHg 50%
    16:00 +10°C° 0.1 mm 7 mps 749 mmHg 51%
    17:00 +10°C° 0.1 mm 7 mps 749 mmHg 51%
    18:00 +9°C° 0 mm 6 mps 749 mmHg 55%
    19:00 +8°C° 0 mm 6 mps 749 mmHg 60%
    20:00 +7°C° 0 mm 6 mps 748 mmHg 64%
    21:00 +7°C° 0.3 mm 6 mps 748 mmHg 68%
    22:00 +6°C° 0.3 mm 7 mps 747 mmHg 72%
    23:00 +6°C° 0.3 mm 7 mps 747 mmHg 76%

    26 September, Wednesday

    Time Temperature Precipitation Wind Pressure Humidity
    00:00 +6°C° 1 mm 7 mps 746 mmHg 79%
    01:00 +6°C° 1 mm 7 mps 746 mmHg 83%
    02:00 +6°C° 1 mm 7 mps 745 mmHg 87%
    03:00 +5°C° 0.2 mm 6 mps 745 mmHg 87%
    04:00 +5°C° 0.2 mm 6 mps 745 mmHg 86%
    05:00 +4°C° 0.2 mm 6 mps 745 mmHg 86%
    06:00 +5°C° 0.2 mm 6 mps 746 mmHg 86%
    07:00 +5°C° 0.2 mm 6 mps 747 mmHg 87%
    08:00 +5°C° 0.2 mm 6 mps 747 mmHg 88%
    09:00 +7°C° 0.1 mm 6 mps 748 mmHg 82%
    10:00 +8°C° 0.1 mm 6 mps 749 mmHg 76%
    11:00 +9°C° 0.1 mm 6 mps 750 mmHg 71%
    12:00 +10°C° 0 mm 6 mps 750 mmHg 65%
    13:00 +12°C° 0 mm 5 mps 751 mmHg 60%
    14:00 +13°C° 0 mm 5 mps 751 mmHg 55%
    15:00 +13°C° 0.1 mm 5 mps 751 mmHg 58%
    16:00 +13°C° 0.1 mm 4 mps 751 mmHg 61%
    17:00 +12°C° 0.1 mm 4 mps 751 mmHg 63%
    18:00 +11°C° 0.1 mm 4 mps 752 mmHg 68%
    19:00 +10°C° 0.1 mm 3 mps 752 mmHg 73%
    20:00 +9°C° 0.1 mm 3 mps 752 mmHg 77%
    21:00 +8°C° 0 mm 3 mps 753 mmHg 78%
    22:00 +8°C° 0 mm 3 mps 753 mmHg 79%
    23:00 +7°C° 0 mm 3 mps 753 mmHg 80%
    Show more